This demonstration page uses our WeatherBlox Daily Observations layout. Learn more.

Left ArrowRight Arrow

39.29038, -76.61219

Hourly Observations for November 14, 2020

Temp ( °F °C ) Dew Point ( °F °C ) Humidity (%) Winds ( mph kmh ) Pressure ( in mb ) Visibility ( mi km ) Precip ( " mm )
12:54 am 00:54 Clear 44 6.7 35 1.7 71 71 WNW 7 11 30.10 1019 10 16 0.00 0.00
1:54 am 01:54 Clear 48 8.9 33 0.6 56 56 SW 5 7 30.10 1019 10 16 0.00 0.00
2:54 am 02:54 Mostly Clear 48 8.9 34 1.1 58 58 W 8 13 30.11 1020 10 16 0.00 0.00
3:54 am 03:54 Partly Cloudy 47 8.3 34 1.1 61 61 WSW 5 7 30.14 1021 10 16 0.00 0.00
4:54 am 04:54 Mostly Cloudy 43 6.1 34 1.1 71 71 W 5 7 30.15 1021 10 16 0.00 0.00
5:54 am 05:54 Partly Cloudy 43 6.1 35 1.7 74 74 W 5 7 30.16 1021 10 16 0.00 0.00
6:54 am 06:54 Mostly Sunny 42 5.6 34 1.1 73 73 W 3 6 30.19 1022 10 16 0.00 0.00
7:54 am 07:54 Sunny 47 8.3 37 2.8 69 69 Calm 30.20 1023 10 16 0.00 0.00
8:54 am 08:54 Partly Cloudy 51 10.6 36 2.2 56 56 WNW 6 9 30.22 1023 10 16 0.00 0.00
9:54 am 09:54 Partly Cloudy 54 12.2 36 2.2 51 51 VRB 6 9 30.22 1024 10 16 0.00 0.00
10:54 am 10:54 Partly Cloudy 54 12.2 34 1.1 47 47 W 7 11 30.23 1024 10 16 0.00 0.00
11:54 am 11:54 Partly Cloudy 56 13.3 31 -0.6 39 39 W 8 13 30.22 1023 10 16 0.00 0.00
12:54 pm 12:54 Partly Cloudy 57 13.9 27 -2.8 32 32 W 13 20 30.19 1023 10 16 0.00 0.00
1:54 pm 13:54 Partly Cloudy 57 13.9 26 -3.3 30 30 W 8 13 30.17 1022 10 16 0.00 0.00
2:54 pm 14:54 Partly Cloudy 58 14.4 23 -5 26 26 W 8 13 30.17 1022 10 16 0.00 0.00
3:54 pm 15:54 Partly Cloudy 57 13.9 26 -3.3 30 30 WNW 6 9 30.19 1022 10 16 0.00 0.00
4:54 pm 16:54 Mostly Clear 54 12.2 24 -4.4 31 31 Calm 30.20 1023 10 16 0.00 0.00
5:54 pm 17:54 Mostly Clear 49 9.4 27 -2.8 43 43 Calm 30.21 1023 10 16 0.00 0.00
6:54 pm 18:54 Mostly Clear 45 7.2 29 -1.7 54 54 Calm 30.23 1024 10 16 0.00 0.00
7:54 pm 19:54 Mostly Clear 42 5.6 31 -0.6 65 65 Calm 30.22 1024 10 16 0.00 0.00
8:54 pm 20:54 Mostly Clear 43 6.1 30 -1.1 60 60 Calm 30.24 1024 10 16 0.00 0.00
9:54 pm 21:54 Mostly Clear 41 5 31 -0.6 67 67 Calm 30.25 1024 10 16 0.00 0.00
10:54 pm 22:54 Mostly Clear 39 3.9 31 -0.6 73 73 Calm 30.24 1024 10 16 0.00 0.00
11:54 pm 23:54 Mostly Cloudy 42 5.6 34 1.1 73 73 Calm 30.22 1023 10 16 0.00 0.00

Powered by AerisWeather